[[{"header":{"parameterUnit":"m.s-1","parameterCategory":1,"la1":30.2991,"la2":30.254,"lo1":-89.0895,"lo2":-89.0444,"dy":0.0017,"dx":0.0017,"nx":28,"ny":28,"refTime":"2025-07-13T09:00:00:Z","depth":0,"parameterNumber":2,"parameterNumberName":"U-component_of_WINDS"},"data":[0,0,0,0,0,0,0,0,0,0,0,0,0,0,0,0,0,0,0,0,0,0,0,0,0,0,0,0,0,0,0,0,0,0,0,0,0,0,0,0,0,0,0,0,0,0,0,0,0,0,0,0,0,0,0,0,0,0,2.7113,2.7113,0,2.716,2.7161,2.7162,2.7111,2.7109,2.7107,2.7105,2.7155,2.7158,2.7161,0,0,0,0,0,0,0,0,0,0,0,0,0,2.6978,2.6981,2.7113,2.7114,2.7114,2.716,2.7161,2.7162,2.7111,2.7109,2.7107,2.7104,2.7154,2.7157,2.7161,0,0,0,0,0,0,0,0,0,0,0,0,0,2.7032,2.6982,2.7113,2.7095,2.7093,2.716,2.7161,2.7162,2.7112,2.7109,2.7106,2.7103,2.7152,2.7157,2.7162,2.7249,0,0,2.7176,2.7178,0,0,0,0,0,0,0,0,2.7029,2.7037,2.7097,2.7096,2.7095,2.7127,2.7132,2.7191,2.7113,2.7105,2.7105,2.7102,2.7148,2.7153,2.7168,2.7251,2.7253,2.7176,2.7179,2.7181,2.7183,0,0,0,0,0,0,0,2.7026,2.7035,2.7132,2.7098,2.7096,2.7084,2.7088,2.7143,2.7142,2.7105,2.7102,2.7108,2.7147,2.7164,2.7169,2.7254,2.7176,2.718,2.7183,2.7185,2.7408,2.7411,0,0,0,0,0,0,2.7024,2.7032,2.713,2.7133,2.7054,2.7089,2.7094,2.712,2.7141,2.7142,2.7111,2.7106,2.7157,2.7163,2.717,2.7271,2.7181,2.7186,2.7188,2.7405,2.7409,2.7413,0,0,0,0,0,0,2.7021,2.7033,2.7128,2.7082,2.7093,2.7094,2.7124,2.7122,2.7139,2.7145,2.7145,2.7128,2.7155,2.7164,2.7229,2.7273,2.7188,2.7192,2.7402,2.7407,2.7411,2.7476,0,0,0,0,0,0,2.7018,2.7033,2.7066,2.7083,2.7096,2.7186,2.7126,2.7125,2.7147,2.7141,2.7161,2.7162,2.7153,2.7222,2.7234,2.7277,2.7196,2.7398,2.7404,2.7409,2.747,2.7482,2.7493,0,0,0,0,0,2.7013,2.7083,2.7068,2.708,2.7137,2.7189,2.7196,2.7185,2.7151,2.7184,2.7188,2.7161,2.7267,2.7229,2.7242,2.7288,2.7395,2.7402,2.7409,2.7465,2.748,2.7493,0,0,0,0,0,0,2.7072,2.7085,2.7068,2.7146,2.7167,2.718,2.7222,2.7202,2.7233,2.7226,2.721,2.7215,2.7284,2.7293,2.7251,2.7372,2.7325,2.7335,2.7363,2.7378,2.7389,2.7384,2.72,0,0,0,0,0,2.7094,2.7135,2.7144,2.7212,2.7223,2.7221,2.7243,2.7232,2.7253,2.7262,2.7271,2.7292,2.7329,2.7355,2.739,2.7472,2.7474,2.7509,2.7521,2.753,2.7538,2.758,2.7594,2.7436,2.7436,2.7435,0,0,2.7139,2.7152,2.7179,2.7224,2.7238,2.728,2.7229,2.7276,2.7306,2.7269,2.733,2.7338,2.7361,2.7434,2.7467,2.7443,2.7583,2.7539,2.7547,2.7549,2.7588,2.7603,2.7617,2.744,2.744,2.7439,0,0,2.7243,2.7258,2.7314,2.733,2.7353,2.7351,2.7364,2.7381,2.7384,2.7446,2.7418,2.7454,2.752,2.7537,2.7554,2.7663,2.7639,2.7676,2.7735,2.7775,2.7788,2.7799,2.7835,2.7848,2.7684,2.7684,2.7684,0,2.7297,2.7359,2.7346,2.7394,2.7414,2.7382,2.7438,2.7455,2.7488,2.7502,2.7476,2.7556,2.757,2.7645,2.7671,2.7688,2.7701,2.7672,2.7787,2.7798,2.7808,2.7842,2.7856,2.7688,2.7688,2.7687,2.7687,0,2.7422,2.7466,2.7509,2.7541,2.7566,2.7619,2.7613,2.764,2.7627,2.7628,2.7689,2.7705,2.7741,2.7759,2.7747,2.7832,2.7816,2.7789,2.7741,2.7827,2.7859,2.7872,2.7694,2.7692,2.7691,2.769,0,0,2.7563,2.7587,2.7602,2.7615,2.7638,2.7671,2.7722,2.7757,2.7779,2.7804,2.7845,2.7901,2.7875,2.7894,2.7885,2.7921,2.8003,2.7888,2.7888,2.7906,2.8094,2.8113,2.8128,2.7988,2.7991,2.7993,2.8091,0,2.7665,2.7752,2.7742,2.7824,2.7863,2.7833,2.7877,2.7895,2.7898,2.7931,2.7933,2.7972,2.7936,2.7947,2.7982,2.7986,2.804,2.7979,2.8024,2.8026,2.8016,2.8145,2.8165,2.8257,2.8104,2.8106,2.8108,0,2.7796,2.7823,2.791,2.7924,2.794,2.798,2.801,2.8043,2.8063,2.8062,2.8083,2.8066,2.8116,2.8069,2.8137,2.8095,2.8114,2.8119,2.8122,2.8123,2.807,2.8148,2.8287,2.83,2.8128,2.8126,2.8125,0,2.7886,2.7945,2.8004,2.8016,2.8036,2.8064,2.8073,2.809,2.8112,2.8139,2.8152,2.8185,2.8202,2.8228,2.822,2.8187,2.8289,2.8242,2.8287,2.8288,2.8308,2.8306,2.8449,2.8325,2.8325,2.8324,2.8324,0,2.7999,2.8053,2.8044,2.808,2.8138,2.8126,2.8184,2.819,2.8205,2.8241,2.8219,2.8253,2.8242,2.8276,2.8271,2.8326,2.8335,2.8334,2.8331,2.8334,2.8334,2.8344,2.8336,2.8328,2.8327,2.8327,2.8326,0,2.8109,2.8106,2.8167,2.818,2.8185,2.8227,2.8238,2.8271,2.8272,2.8317,2.8327,2.8328,2.8366,2.8362,2.8405,2.8401,2.8469,2.846,2.8462,2.8459,2.8504,2.8498,2.8656,2.8675,2.8541,2.8542,2.8543,0,2.818,2.822,2.8237,2.8259,2.827,2.8307,2.8327,2.8317,2.834,2.8365,2.8395,2.8431,2.8459,2.8521,2.8525,2.8558,2.8548,2.8601,2.8552,2.8553,2.8545,2.8541,2.8544,2.8609,2.8611,2.8612,2.8613,0,2.8305,2.8301,2.8332,2.8363,2.8388,2.8412,2.8433,2.8453,2.8444,2.8471,2.8509,2.8531,2.8574,2.8609,2.864,2.8649,2.8629,2.8629,2.864,2.8642,2.864,2.8639,2.8485,2.8624,2.8623,2.8622,2.8622,2.8621,2.8396,2.8429,2.8446,2.848,2.8495,2.8515,2.8546,2.855,2.8582,2.8616,2.8608,2.8651,2.8668,2.8707,2.872,2.8752,2.8733,2.8751,2.8755,2.8759,2.8762,2.8637,2.8758,2.8758,2.8758,2.8757,2.8757,0,2.8517,2.8526,2.8559,2.8588,2.8616,2.8595,2.8617,2.8641,2.8679,2.8697,2.8724,2.8767,2.8801,2.8808,2.884,2.8865,2.8857,2.8874,2.887,2.8872,2.8779,2.8764,2.888,2.888,2.888,2.888,2.888,2.888,2.8584,2.8638,2.8636,2.8697,2.8706,2.8746,2.876,2.8779,2.8793,2.8841,2.8869,2.8873,2.8886,2.8919,2.8949,2.895,2.8962,2.8982,2.8979,2.8892,2.8879,2.8867,2.8853,2.8985,2.8985,2.9069,2.907,2.907]},{"header":{"parameterUnit":"m.s-1","parameterCategory":1,"la1":30.2991,"la2":30.254,"lo1":-89.0895,"lo2":-89.0444,"dy":0.0017,"dx":0.0017,"nx":28,"ny":28,"refTime":"2025-07-13T09:00:00:Z","depth":0,"parameterNumber":3,"parameterNumberName":"V-component_of_WINDS"},"data":[0,0,0,0,0,0,0,0,0,0,0,0,0,0,0,0,0,0,0,0,0,0,0,0,0,0,0,0,0,0,0,0,0,0,0,0,0,0,0,0,0,0,0,0,0,0,0,0,0,0,0,0,0,0,0,0,0,0,1.8046,1.8048,0,1.8162,1.8163,1.8164,1.8171,1.817,1.8168,1.8167,1.8283,1.8288,1.8292,0,0,0,0,0,0,0,0,0,0,0,0,0,1.783,1.7834,1.8046,1.8048,1.8049,1.8161,1.8163,1.8164,1.8171,1.817,1.8168,1.8167,1.8282,1.8287,1.8292,0,0,0,0,0,0,0,0,0,0,0,0,0,1.7932,1.7835,1.8046,1.8066,1.8069,1.8161,1.8163,1.8165,1.8172,1.817,1.8168,1.8166,1.828,1.8287,1.8293,1.8372,0,0,1.8313,1.8315,0,0,0,0,0,0,0,0,1.7926,1.794,1.8062,1.8065,1.8068,1.815,1.8129,1.8234,1.8172,1.8133,1.8167,1.8165,1.824,1.825,1.8276,1.8377,1.8382,1.8313,1.8317,1.832,1.8322,0,0,0,0,0,0,0,1.7919,1.7935,1.8092,1.8063,1.8068,1.8069,1.8081,1.8149,1.8196,1.8136,1.8137,1.815,1.8242,1.827,1.8279,1.8384,1.8313,1.8319,1.8323,1.8325,1.8555,1.8557,0,0,0,0,0,0,1.7909,1.7929,1.8088,1.8095,1.7991,1.8074,1.8088,1.8126,1.8195,1.8204,1.8152,1.815,1.826,1.8271,1.8283,1.8379,1.832,1.8326,1.833,1.8553,1.8555,1.8558,0,0,0,0,0,0,1.7904,1.7923,1.8084,1.8013,1.8033,1.808,1.8122,1.8129,1.8157,1.8207,1.8216,1.8172,1.8258,1.8274,1.835,1.8383,1.8329,1.8335,1.855,1.8553,1.8557,1.8573,0,0,0,0,0,0,1.7898,1.7921,1.7952,1.8013,1.8037,1.8149,1.8124,1.8133,1.8168,1.8167,1.8228,1.8237,1.8258,1.834,1.8356,1.8391,1.834,1.8547,1.8552,1.8555,1.857,1.8577,1.8583,0,0,0,0,0,1.789,1.7952,1.7954,1.7973,1.8077,1.8151,1.8165,1.8189,1.8171,1.8202,1.8234,1.8235,1.8377,1.8348,1.8366,1.8404,1.8545,1.855,1.8555,1.8567,1.8575,1.8582,0,0,0,0,0,0,1.7894,1.7961,1.7963,1.8047,1.8094,1.8152,1.8193,1.8197,1.8249,1.8246,1.8273,1.8286,1.8361,1.839,1.8356,1.8483,1.8459,1.8468,1.8462,1.847,1.8476,1.8468,1.8345,0,0,0,0,0,1.7905,1.796,1.8015,1.8084,1.8107,1.8146,1.8179,1.8193,1.8242,1.8262,1.83,1.8346,1.8401,1.8437,1.8491,1.8574,1.8587,1.8609,1.8615,1.862,1.8627,1.8672,1.8682,1.8574,1.8574,1.8574,0,0,1.7927,1.7971,1.8004,1.8086,1.8123,1.8179,1.8162,1.8222,1.8264,1.8271,1.8345,1.8374,1.8428,1.8507,1.8544,1.8533,1.866,1.8626,1.863,1.8635,1.8678,1.8688,1.8697,1.8578,1.8577,1.8576,0,0,1.7997,1.8036,1.8097,1.8135,1.8192,1.8217,1.8232,1.829,1.8309,1.8384,1.839,1.8439,1.8534,1.8572,1.8603,1.8686,1.8688,1.8703,1.8736,1.8779,1.8788,1.8795,1.8824,1.8834,1.871,1.871,1.871,0,1.8018,1.8103,1.8128,1.8188,1.8223,1.8232,1.8293,1.8329,1.84,1.8424,1.8411,1.8529,1.8566,1.8654,1.8674,1.8699,1.8716,1.8696,1.8784,1.8792,1.88,1.8828,1.8838,1.8711,1.8711,1.8711,1.8711,0,1.8126,1.8184,1.8227,1.8296,1.8336,1.8396,1.8429,1.8466,1.8477,1.8503,1.8578,1.8622,1.8685,1.8706,1.8717,1.8796,1.8787,1.8779,1.8755,1.8811,1.8838,1.8848,1.8713,1.8713,1.8712,1.8712,0,0,1.8202,1.8283,1.8298,1.8329,1.8392,1.8437,1.8497,1.8559,1.859,1.8638,1.8689,1.8768,1.8761,1.8797,1.8812,1.885,1.8911,1.8837,1.8838,1.8849,1.8999,1.9004,1.9016,1.8912,1.8914,1.8916,1.8994,0,1.8278,1.8386,1.841,1.8502,1.8556,1.8565,1.8617,1.866,1.8686,1.8735,1.8763,1.8818,1.8805,1.8826,1.8864,1.8895,1.8941,1.889,1.8959,1.8961,1.8945,1.903,1.9037,1.9108,1.9004,1.9006,1.9008,0,1.8382,1.8433,1.8532,1.8586,1.861,1.8656,1.8714,1.8761,1.881,1.8825,1.8865,1.8876,1.8937,1.891,1.8995,1.8959,1.8988,1.9008,1.9011,1.9018,1.8987,1.9039,1.9131,1.9142,1.9024,1.9023,1.9022,0,1.8428,1.8521,1.8591,1.8617,1.8683,1.8716,1.8744,1.8792,1.8827,1.8876,1.8899,1.8955,1.8986,1.9028,1.9053,1.9031,1.9135,1.9111,1.9149,1.9149,1.9171,1.9169,1.9269,1.919,1.919,1.919,1.919,0,1.851,1.857,1.8612,1.8656,1.8722,1.8748,1.8812,1.8841,1.8883,1.8931,1.8941,1.8986,1.9016,1.9065,1.9085,1.9151,1.9165,1.9179,1.9183,1.9178,1.9176,1.9198,1.9193,1.9193,1.9192,1.9192,1.9191,0,1.8572,1.8603,1.8681,1.8736,1.8751,1.8798,1.8845,1.8887,1.8912,1.8973,1.8989,1.9028,1.9086,1.9115,1.9187,1.92,1.9275,1.9277,1.9259,1.9261,1.9297,1.9293,1.9414,1.9431,1.9341,1.9342,1.9343,0,1.8623,1.8669,1.873,1.8763,1.8792,1.8846,1.8881,1.8908,1.8944,1.9003,1.9037,1.9095,1.9144,1.9235,1.927,1.9325,1.9327,1.9366,1.9336,1.9328,1.9327,1.9324,1.9329,1.9371,1.9372,1.9373,1.9373,0,1.871,1.8722,1.8774,1.883,1.8872,1.8918,1.8963,1.8989,1.9022,1.9062,1.9122,1.9159,1.9232,1.929,1.9347,1.9375,1.938,1.9382,1.9394,1.9389,1.9377,1.9383,1.9273,1.938,1.9379,1.9379,1.9378,1.9378,1.8768,1.8808,1.8857,1.8913,1.895,1.8991,1.9033,1.9063,1.9113,1.9175,1.9187,1.925,1.9297,1.9374,1.9404,1.9453,1.9444,1.9461,1.9466,1.9469,1.9471,1.9369,1.9463,1.9463,1.9463,1.9463,1.9463,0,1.8854,1.8886,1.8937,1.8999,1.9043,1.9044,1.9093,1.913,1.9185,1.9228,1.9275,1.9343,1.9398,1.9437,1.9493,1.9524,1.9528,1.9538,1.9536,1.9542,1.9476,1.946,1.9534,1.9534,1.9534,1.9534,1.9534,1.9534,1.8905,1.8973,1.8992,1.9078,1.9109,1.9171,1.9199,1.9236,1.9271,1.9346,1.9393,1.9417,1.9459,1.9517,1.9568,1.9578,1.9598,1.9608,1.9618,1.9555,1.9547,1.954,1.9525,1.9612,1.9612,1.968,1.9681,1.9681]}]]